DLH09M EDDM-LFBO

Flight info

Callsign DLH09M
Flight time 1h 33m
Altitude 37000
Route ALG2S ALG Y109 UMTEX Y100 TRA DCT LUTIX DCT BENOT DCT NEMOS DCT NINTU DCT MEBAK DCT REPSI DCT LERGA/N0417F330 DCT MINSO DCT NARAK
Aircraft A320/M-SDE2E3FGIJ1LORWXYZ/HB1

Departure

Time 2026-05-07 15:16
Airport Munich Airport (EDDM)

Arrival

Time 2026-05-07 16:49
Airport Toulouse-Blagnac Airport (LFBO)
Time Latitude Longitude Altitude Speed Heading
2026-05-07 15:00 48.35363 11.79752 1472 ft 0 kts 83°
2026-05-07 15:07 48.35361 11.79734 1461 ft 2 kts 83°
2026-05-07 15:07 48.35359 11.79709 1471 ft 2 kts 83°
2026-05-07 15:07 48.35357 11.79685 1460 ft 2 kts 83°
2026-05-07 15:08 48.35355 11.79660 1464 ft 2 kts 83°
2026-05-07 15:08 48.35354 11.79635 1464 ft 2 kts 83°
2026-05-07 15:08 48.35354 11.79610 1468 ft 2 kts 161°
2026-05-07 15:08 48.35365 11.79607 1461 ft 1 kts 168°
2026-05-07 15:09 48.35366 11.79607 1461 ft 0 kts 169°
2026-05-07 15:10 48.35363 11.79608 1461 ft 3 kts 169°
2026-05-07 15:10 48.35303 11.79619 1470 ft 10 kts 174°
2026-05-07 15:11 48.35238 11.79629 1466 ft 9 kts 174°
2026-05-07 15:11 48.35160 11.79642 1471 ft 14 kts 173°
2026-05-07 15:11 48.35065 11.79659 1468 ft 14 kts 174°
2026-05-07 15:11 48.34974 11.79674 1462 ft 12 kts 173°
2026-05-07 15:12 48.34915 11.79684 1463 ft 8 kts 173°
2026-05-07 15:12 48.34873 11.79691 1459 ft 0 kts 173°
2026-05-07 15:12 48.34857 11.79694 1463 ft 8 kts 173°
2026-05-07 15:12 48.34810 11.79739 1465 ft 8 kts 115°
2026-05-07 15:13 48.34810 11.79813 1463 ft 6 kts 81°
2026-05-07 15:13 48.34815 11.79874 1467 ft 6 kts 83°
2026-05-07 15:13 48.34824 11.79988 1467 ft 14 kts 84°
2026-05-07 15:13 48.34827 11.80130 1465 ft 13 kts 102°
2026-05-07 15:14 48.34775 11.80221 1459 ft 11 kts 145°
2026-05-07 15:14 48.34679 11.80253 1460 ft 20 kts 173°
2026-05-07 15:14 48.34568 11.80272 1463 ft 14 kts 173°
2026-05-07 15:14 48.34482 11.80280 1467 ft 11 kts 196°
2026-05-07 15:15 48.34456 11.80203 1467 ft 4 kts 265°
2026-05-07 15:15 48.34456 11.80195 1465 ft 5 kts 265°
2026-05-07 15:15 48.34425 11.79767 1470 ft 80 kts 263°
2026-05-07 15:15 48.34338 11.78599 1470 ft 141 kts 264°
2026-05-07 15:16 48.34215 11.76918 1764 ft 168 kts 267°
2026-05-07 15:16 48.34105 11.75168 2619 ft 167 kts 265°
2026-05-07 15:16 48.33975 11.73387 3212 ft 180 kts 265°
2026-05-07 15:16 48.33825 11.71401 3566 ft 202 kts 264°
2026-05-07 15:17 48.33652 11.69208 4002 ft 220 kts 265°
2026-05-07 15:17 48.33465 11.66897 4863 ft 224 kts 264°
2026-05-07 15:17 48.33273 11.64560 5792 ft 228 kts 264°
2026-05-07 15:17 48.33086 11.62077 6316 ft 251 kts 264°
2026-05-07 15:18 48.32894 11.59383 7108 ft 259 kts 264°
2026-05-07 15:18 48.32701 11.56702 8030 ft 263 kts 264°
2026-05-07 15:18 48.32500 11.53911 8991 ft 267 kts 264°
2026-05-07 15:18 48.32299 11.51160 9936 ft 270 kts 263°
2026-05-07 15:19 48.32089 11.48295 10804 ft 273 kts 263°
2026-05-07 15:19 48.31882 11.45453 11664 ft 276 kts 263°
2026-05-07 15:19 48.31671 11.42562 12522 ft 280 kts 263°
2026-05-07 15:19 48.31455 11.39643 13374 ft 283 kts 263°
2026-05-07 15:20 48.31233 11.36684 14181 ft 287 kts 263°
2026-05-07 15:20 48.31005 11.33691 14960 ft 291 kts 263°
2026-05-07 15:20 48.30737 11.30665 15719 ft 295 kts 258°
2026-05-07 15:20 48.30088 11.27743 16329 ft 305 kts 246°
2026-05-07 15:21 48.28979 11.24888 16488 ft 328 kts 239°
2026-05-07 15:21 48.27735 11.21940 16919 ft 339 kts 239°
2026-05-07 15:21 48.26444 11.18883 17565 ft 344 kts 239°
2026-05-07 15:21 48.25155 11.15828 18237 ft 349 kts 239°
2026-05-07 15:22 48.23851 11.12737 18823 ft 353 kts 239°
2026-05-07 15:22 48.22513 11.09563 19428 ft 356 kts 239°
2026-05-07 15:22 48.21183 11.06404 20022 ft 360 kts 239°
2026-05-07 15:22 48.19845 11.03224 20616 ft 363 kts 240°
2026-05-07 15:23 48.18490 11.00004 21195 ft 367 kts 240°
2026-05-07 15:23 48.17120 10.96757 21758 ft 370 kts 239°
2026-05-07 15:23 48.15740 10.93488 22329 ft 373 kts 239°
2026-05-07 15:23 48.14341 10.90187 22877 ft 377 kts 239°
2026-05-07 15:24 48.12932 10.86864 23423 ft 380 kts 239°
2026-05-07 15:24 48.11489 10.83463 23919 ft 383 kts 239°
2026-05-07 15:24 48.10219 10.79954 24357 ft 385 kts 248°
2026-05-07 15:24 48.09361 10.76166 24797 ft 386 kts 256°
2026-05-07 15:25 48.08631 10.72285 25238 ft 389 kts 255°
2026-05-07 15:25 48.07990 10.68898 25624 ft 391 kts 255°
2026-05-07 15:25 48.07253 10.65037 26048 ft 394 kts 255°
2026-05-07 15:25 48.06498 10.61090 26489 ft 396 kts 255°
2026-05-07 15:26 48.05738 10.57119 26921 ft 399 kts 255°
2026-05-07 15:26 48.04970 10.53119 27350 ft 401 kts 255°
2026-05-07 15:26 48.04183 10.49046 27770 ft 404 kts 255°
2026-05-07 15:26 48.03408 10.45060 28178 ft 406 kts 255°
2026-05-07 15:27 48.02607 10.40949 28598 ft 409 kts 255°
2026-05-07 15:27 48.01819 10.36901 28997 ft 411 kts 255°
2026-05-07 15:27 48.01013 10.32767 29405 ft 414 kts 255°
2026-05-07 15:27 48.00459 10.29929 29686 ft 415 kts 255°
2026-05-07 15:28 47.99360 10.24467 30176 ft 418 kts 253°
2026-05-07 15:28 47.98412 10.20346 30501 ft 421 kts 251°
2026-05-07 15:28 47.97725 10.17579 30724 ft 422 kts 250°
2026-05-07 15:28 47.96666 10.13489 30975 ft 423 kts 249°
2026-05-07 15:29 47.94526 10.05318 31030 ft 422 kts 250°
2026-05-07 15:29 47.92496 9.97370 31026 ft 422 kts 250°
2026-05-07 15:30 47.90407 9.89047 31030 ft 421 kts 250°
2026-05-07 15:30 47.88357 9.80855 31204 ft 423 kts 250°
2026-05-07 15:31 47.87318 9.76677 31539 ft 425 kts 250°
2026-05-07 15:31 47.86294 9.72564 31939 ft 424 kts 250°
2026-05-07 15:31 47.85263 9.68435 32394 ft 423 kts 250°
2026-05-07 15:31 47.84241 9.64343 32848 ft 421 kts 251°
2026-05-07 15:32 47.83476 9.60144 33282 ft 419 kts 260°
2026-05-07 15:32 47.82975 9.55925 33715 ft 417 kts 261°
2026-05-07 15:32 47.82465 9.51631 34146 ft 416 kts 261°
2026-05-07 15:32 47.81961 9.47415 34494 ft 415 kts 260°
2026-05-07 15:33 47.81446 9.43143 34821 ft 415 kts 260°
2026-05-07 15:33 47.80933 9.38919 35121 ft 414 kts 260°
2026-05-07 15:33 47.80418 9.34707 35422 ft 414 kts 260°
2026-05-07 15:33 47.79895 9.30429 35720 ft 414 kts 260°
2026-05-07 15:34 47.79383 9.26241 36002 ft 414 kts 260°
2026-05-07 15:34 47.78864 9.22020 36281 ft 414 kts 259°
2026-05-07 15:34 47.78342 9.17802 36554 ft 414 kts 259°
2026-05-07 15:34 47.77821 9.13602 36825 ft 414 kts 259°
2026-05-07 15:35 47.77299 9.09393 36991 ft 414 kts 259°
2026-05-07 15:35 47.76774 9.05156 37026 ft 411 kts 259°
2026-05-07 15:35 47.75740 8.96831 37032 ft 409 kts 259°
2026-05-07 15:36 47.74701 8.88516 37022 ft 409 kts 259°
2026-05-07 15:36 47.73647 8.80192 37023 ft 408 kts 259°
2026-05-07 15:37 47.72579 8.71816 37022 ft 408 kts 259°
2026-05-07 15:37 47.71518 8.63547 37020 ft 408 kts 259°
2026-05-07 15:38 47.70454 8.55283 37018 ft 408 kts 259°
2026-05-07 15:38 47.69325 8.46971 37020 ft 407 kts 254°
2026-05-07 15:39 47.66895 8.39421 37018 ft 409 kts 236°
2026-05-07 15:39 47.63573 8.32580 37013 ft 409 kts 236°
2026-05-07 15:40 47.60232 8.25700 37011 ft 409 kts 236°
2026-05-07 15:40 47.56910 8.18863 37005 ft 409 kts 236°
2026-05-07 15:41 47.53575 8.12012 37003 ft 408 kts 236°
2026-05-07 15:41 47.50222 8.05134 37008 ft 408 kts 236°
2026-05-07 15:42 47.46907 7.98381 37009 ft 408 kts 236°
2026-05-07 15:42 47.43567 7.91599 37010 ft 408 kts 236°
2026-05-07 15:43 47.40216 7.84787 37013 ft 408 kts 236°
2026-05-07 15:43 47.36885 7.78020 37016 ft 407 kts 236°
2026-05-07 15:44 47.33548 7.71279 37009 ft 407 kts 236°
2026-05-07 15:44 47.30180 7.64487 37005 ft 407 kts 236°
2026-05-07 15:45 47.26840 7.57762 37001 ft 407 kts 236°
2026-05-07 15:45 47.23497 7.51046 37001 ft 406 kts 236°
2026-05-07 15:46 47.19017 7.42086 37001 ft 406 kts 235°
2026-05-07 15:47 47.15655 7.35410 37001 ft 406 kts 234°
2026-05-07 15:47 47.12163 7.28888 37005 ft 407 kts 233°
2026-05-07 15:48 47.08572 7.22395 37012 ft 407 kts 233°
2026-05-07 15:48 47.05024 7.15947 37017 ft 406 kts 233°
2026-05-07 15:49 47.01471 7.09434 37031 ft 406 kts 233°
2026-05-07 15:49 46.97954 7.02973 37030 ft 405 kts 233°
2026-05-07 15:50 46.94406 6.96492 37032 ft 405 kts 233°
2026-05-07 15:50 46.90870 6.90073 37032 ft 405 kts 233°
2026-05-07 15:51 46.87336 6.83673 37031 ft 404 kts 233°
2026-05-07 15:51 46.83806 6.77294 37030 ft 404 kts 233°
2026-05-07 15:52 46.80251 6.70869 37025 ft 404 kts 233°
2026-05-07 15:52 46.76712 6.64497 37021 ft 404 kts 233°
2026-05-07 15:53 46.73137 6.58097 37021 ft 404 kts 233°
2026-05-07 15:53 46.69594 6.51754 37016 ft 404 kts 233°
2026-05-07 15:54 46.66051 6.45418 37011 ft 404 kts 233°
2026-05-07 15:54 46.62499 6.39087 37009 ft 403 kts 233°
2026-05-07 15:55 46.58928 6.32740 37014 ft 403 kts 232°
2026-05-07 15:55 46.55346 6.26396 37010 ft 403 kts 232°
2026-05-07 15:56 46.51800 6.20115 37011 ft 403 kts 232°
2026-05-07 15:56 46.48223 6.13784 37008 ft 402 kts 232°
2026-05-07 15:57 46.44641 6.07484 37006 ft 402 kts 232°
2026-05-07 15:57 46.41084 6.01236 37005 ft 402 kts 232°
2026-05-07 15:58 46.37532 5.95001 37002 ft 401 kts 232°
2026-05-07 15:58 46.33975 5.88775 37004 ft 401 kts 232°
2026-05-07 15:59 46.30396 5.82512 37008 ft 401 kts 232°
2026-05-07 15:59 46.26840 5.76311 37005 ft 401 kts 232°
2026-05-07 16:00 46.23279 5.70118 37006 ft 401 kts 232°
2026-05-07 16:00 46.19715 5.63931 37003 ft 401 kts 232°
2026-05-07 16:01 46.16118 5.57715 37006 ft 401 kts 232°
2026-05-07 16:01 46.12818 5.51338 37005 ft 399 kts 237°
2026-05-07 16:02 46.09644 5.44704 37006 ft 399 kts 237°
2026-05-07 16:02 46.06487 5.38128 36982 ft 401 kts 237°
2026-05-07 16:03 46.03303 5.31522 36995 ft 401 kts 236°
2026-05-07 16:03 46.00123 5.24939 37018 ft 400 kts 236°
2026-05-07 16:04 45.96927 5.18326 37012 ft 400 kts 236°
2026-05-07 16:04 45.93749 5.11775 37017 ft 399 kts 236°
2026-05-07 16:05 45.90577 5.05245 37007 ft 399 kts 236°
2026-05-07 16:05 45.87396 4.98707 37008 ft 399 kts 236°
2026-05-07 16:06 45.84192 4.92143 37004 ft 399 kts 236°
2026-05-07 16:06 45.81005 4.85632 37008 ft 399 kts 236°
2026-05-07 16:07 45.78352 4.80222 37005 ft 399 kts 236°
2026-05-07 16:07 45.75136 4.73679 37006 ft 399 kts 235°
2026-05-07 16:08 45.71931 4.67178 37002 ft 399 kts 235°
2026-05-07 16:08 45.68727 4.60690 37003 ft 399 kts 235°
2026-05-07 16:09 45.65525 4.54205 37000 ft 399 kts 235°
2026-05-07 16:09 45.62309 4.47725 37004 ft 400 kts 235°
2026-05-07 16:10 45.59068 4.41214 37002 ft 400 kts 235°
2026-05-07 16:10 45.55850 4.34739 37006 ft 400 kts 235°
2026-05-07 16:11 45.52620 4.28277 37001 ft 400 kts 235°
2026-05-07 16:11 45.49394 4.21828 37002 ft 400 kts 234°
2026-05-07 16:12 45.46155 4.15383 36996 ft 400 kts 234°
2026-05-07 16:12 45.42918 4.08943 36992 ft 400 kts 234°
2026-05-07 16:13 45.39659 4.02473 36986 ft 400 kts 234°
2026-05-07 16:13 45.36392 3.96002 36980 ft 400 kts 234°
2026-05-07 16:14 45.33137 3.89593 36977 ft 400 kts 234°
2026-05-07 16:14 45.29880 3.83177 36986 ft 400 kts 234°
2026-05-07 16:15 45.26591 3.76721 36986 ft 401 kts 234°
2026-05-07 16:15 45.23352 3.70293 36991 ft 401 kts 235°
2026-05-07 16:16 45.20154 3.63746 36995 ft 401 kts 235°
2026-05-07 16:16 45.16975 3.57240 37001 ft 402 kts 235°
2026-05-07 16:17 45.13771 3.50756 36996 ft 402 kts 235°
2026-05-07 16:17 45.10558 3.44291 36992 ft 401 kts 235°
2026-05-07 16:18 45.07346 3.37830 36987 ft 401 kts 235°
2026-05-07 16:18 45.04114 3.31334 36979 ft 401 kts 235°
2026-05-07 16:19 45.00894 3.24883 36976 ft 401 kts 234°
2026-05-07 16:19 44.97652 3.18398 36975 ft 401 kts 234°
2026-05-07 16:20 44.94431 3.11967 36972 ft 401 kts 234°
2026-05-07 16:20 44.91201 3.05543 36975 ft 401 kts 234°
2026-05-07 16:21 44.87966 2.99128 36972 ft 401 kts 234°
2026-05-07 16:21 44.84703 2.92671 36966 ft 402 kts 234°
2026-05-07 16:21 44.83113 2.89414 36298 ft 407 kts 236°
2026-05-07 16:22 44.81568 2.86072 35699 ft 405 kts 237°
2026-05-07 16:22 44.80066 2.82736 35230 ft 401 kts 238°
2026-05-07 16:22 44.78582 2.79427 34745 ft 398 kts 238°
2026-05-07 16:22 44.77102 2.76150 34258 ft 395 kts 237°
2026-05-07 16:23 44.75621 2.72903 33737 ft 393 kts 237°
2026-05-07 16:23 44.74145 2.69699 33250 ft 389 kts 237°
2026-05-07 16:23 44.72676 2.66529 32783 ft 384 kts 237°
2026-05-07 16:23 44.71222 2.63403 32310 ft 380 kts 237°
2026-05-07 16:24 44.69780 2.60305 31851 ft 377 kts 237°
2026-05-07 16:24 44.68353 2.57243 31406 ft 373 kts 237°
2026-05-07 16:24 44.66924 2.54171 30957 ft 369 kts 237°
2026-05-07 16:24 44.65527 2.51170 30526 ft 365 kts 237°
2026-05-07 16:25 44.64144 2.48200 30108 ft 361 kts 233°
2026-05-07 16:25 44.62771 2.45277 29652 ft 356 kts 237°
2026-05-07 16:25 44.61422 2.42394 29252 ft 350 kts 237°
2026-05-07 16:25 44.60094 2.39553 28858 ft 345 kts 237°
2026-05-07 16:26 44.58790 2.36760 28480 ft 340 kts 237°
2026-05-07 16:26 44.57502 2.34006 28126 ft 335 kts 237°
2026-05-07 16:26 44.56235 2.31298 27744 ft 330 kts 237°
2026-05-07 16:26 44.55386 2.29485 27489 ft 328 kts 237°
2026-05-07 16:27 44.53742 2.25977 27006 ft 323 kts 237°
2026-05-07 16:27 44.52514 2.23362 26616 ft 321 kts 237°
2026-05-07 16:27 44.51289 2.20759 26235 ft 319 kts 237°
2026-05-07 16:27 44.50069 2.18170 25849 ft 318 kts 237°
2026-05-07 16:28 44.48853 2.15592 25444 ft 317 kts 237°
2026-05-07 16:28 44.47640 2.13022 25053 ft 315 kts 237°
2026-05-07 16:28 44.46418 2.10438 24646 ft 314 kts 237°
2026-05-07 16:28 44.45212 2.07889 24231 ft 313 kts 237°
2026-05-07 16:29 44.44011 2.05347 23817 ft 313 kts 237°
2026-05-07 16:29 44.42811 2.02810 23376 ft 313 kts 237°
2026-05-07 16:29 44.41615 2.00284 22940 ft 311 kts 237°
2026-05-07 16:29 44.40823 1.98615 22675 ft 310 kts 237°
2026-05-07 16:30 44.39621 1.96078 22272 ft 308 kts 237°
2026-05-07 16:30 44.38440 1.93591 21872 ft 306 kts 237°
2026-05-07 16:30 44.37263 1.91114 21491 ft 305 kts 237°
2026-05-07 16:30 44.36095 1.88653 21102 ft 304 kts 237°
2026-05-07 16:31 44.34928 1.86197 20712 ft 303 kts 237°
2026-05-07 16:31 44.33761 1.83754 20332 ft 302 kts 237°
2026-05-07 16:31 44.32592 1.81311 19959 ft 302 kts 237°
2026-05-07 16:31 44.31423 1.78870 19577 ft 302 kts 237°
2026-05-07 16:32 44.30237 1.76453 19201 ft 302 kts 233°
2026-05-07 16:32 44.28800 1.74315 18819 ft 305 kts 222°
2026-05-07 16:32 44.27058 1.72524 18506 ft 315 kts 216°
2026-05-07 16:32 44.25241 1.70794 18132 ft 316 kts 216°
2026-05-07 16:33 44.23430 1.69059 17764 ft 315 kts 216°
2026-05-07 16:33 44.21627 1.67324 17424 ft 314 kts 216°
2026-05-07 16:33 44.19829 1.65598 17075 ft 313 kts 216°
2026-05-07 16:33 44.18017 1.63866 16725 ft 311 kts 216°
2026-05-07 16:34 44.16230 1.62162 16375 ft 310 kts 216°
2026-05-07 16:34 44.14457 1.60475 16049 ft 309 kts 216°
2026-05-07 16:34 44.12685 1.58789 15711 ft 307 kts 216°
2026-05-07 16:34 44.10922 1.57113 15371 ft 306 kts 216°
2026-05-07 16:35 44.09170 1.55445 15031 ft 305 kts 216°
2026-05-07 16:35 44.07428 1.53783 14691 ft 303 kts 216°
2026-05-07 16:35 44.05689 1.52125 14378 ft 302 kts 216°
2026-05-07 16:35 44.03959 1.50480 14049 ft 301 kts 216°
2026-05-07 16:36 44.02203 1.48815 13709 ft 300 kts 216°
2026-05-07 16:36 44.00496 1.47193 13358 ft 298 kts 216°
2026-05-07 16:36 43.98746 1.45655 13030 ft 297 kts 208°
2026-05-07 16:36 43.96812 1.44651 12700 ft 298 kts 195°
2026-05-07 16:37 43.94773 1.44141 12368 ft 297 kts 192°
2026-05-07 16:37 43.92741 1.43664 12039 ft 296 kts 192°
2026-05-07 16:37 43.90719 1.43184 11708 ft 294 kts 192°
2026-05-07 16:37 43.88708 1.42703 11382 ft 293 kts 192°
2026-05-07 16:38 43.86704 1.42226 11062 ft 291 kts 193°
2026-05-07 16:38 43.84700 1.41894 10738 ft 292 kts 182°
2026-05-07 16:38 43.82681 1.42269 10412 ft 295 kts 167°
2026-05-07 16:38 43.80795 1.43394 10081 ft 297 kts 150°
2026-05-07 16:39 43.79119 1.45110 9735 ft 298 kts 144°
2026-05-07 16:39 43.77476 1.46885 9376 ft 297 kts 144°
2026-05-07 16:39 43.75854 1.48634 9076 ft 295 kts 144°
2026-05-07 16:39 43.74234 1.50374 8735 ft 294 kts 144°
2026-05-07 16:40 43.72621 1.52107 8424 ft 293 kts 144°
2026-05-07 16:40 43.71013 1.53839 8087 ft 292 kts 144°
2026-05-07 16:40 43.69416 1.55559 7770 ft 291 kts 144°
2026-05-07 16:40 43.67823 1.57268 7450 ft 290 kts 144°
2026-05-07 16:41 43.66228 1.58976 7126 ft 289 kts 145°
2026-05-07 16:41 43.64643 1.60672 6803 ft 288 kts 144°
2026-05-07 16:41 43.62983 1.62169 6489 ft 283 kts 158°
2026-05-07 16:41 43.61119 1.62999 6172 ft 278 kts 173°
2026-05-07 16:42 43.59202 1.63110 5849 ft 272 kts 189°
2026-05-07 16:42 43.57330 1.62793 5543 ft 270 kts 189°
2026-05-07 16:42 43.55445 1.62477 5249 ft 270 kts 190°
2026-05-07 16:42 43.53606 1.62174 4974 ft 269 kts 190°
2026-05-07 16:43 43.51749 1.61865 4670 ft 268 kts 191°
2026-05-07 16:43 43.49988 1.61085 4352 ft 260 kts 212°
2026-05-07 16:43 43.48622 1.59594 4248 ft 243 kts 231°
2026-05-07 16:43 43.47740 1.57709 4137 ft 228 kts 250°
2026-05-07 16:44 43.47321 1.55674 4035 ft 216 kts 259°
2026-05-07 16:44 43.47188 1.53688 3934 ft 204 kts 280°
2026-05-07 16:44 43.47753 1.51970 3787 ft 198 kts 310°
2026-05-07 16:44 43.48811 1.50771 3609 ft 195 kts 321°
2026-05-07 16:45 43.49878 1.49678 3454 ft 185 kts 321°
2026-05-07 16:45 43.50875 1.48650 3230 ft 172 kts 320°
2026-05-07 16:45 43.51773 1.47722 3018 ft 150 kts 320°
2026-05-07 16:45 43.52570 1.46896 2817 ft 139 kts 319°
2026-05-07 16:46 43.53324 1.46114 2623 ft 132 kts 318°
2026-05-07 16:46 43.54055 1.45361 2515 ft 131 kts 319°
2026-05-07 16:46 43.54793 1.44595 2253 ft 131 kts 317°
2026-05-07 16:46 43.55507 1.43857 2134 ft 128 kts 317°
2026-05-07 16:47 43.56215 1.43117 1950 ft 128 kts 317°
2026-05-07 16:47 43.56927 1.42376 1806 ft 129 kts 318°
2026-05-07 16:47 43.57640 1.41636 1638 ft 128 kts 319°
2026-05-07 16:47 43.58347 1.40902 1453 ft 128 kts 321°
2026-05-07 16:48 43.59077 1.40141 1238 ft 129 kts 322°
2026-05-07 16:48 43.59802 1.39391 1053 ft 131 kts 324°
2026-05-07 16:48 43.60533 1.38632 873 ft 133 kts 325°
2026-05-07 16:48 43.61274 1.37866 700 ft 133 kts 326°
2026-05-07 16:49 43.62014 1.37081 541 ft 134 kts 327°
2026-05-07 16:49 43.62718 1.36359 488 ft 112 kts 322°
2026-05-07 16:49 43.63203 1.35853 488 ft 62 kts 323°
2026-05-07 16:49 43.63414 1.35634 489 ft 17 kts 323°
2026-05-07 16:50 43.63518 1.35530 489 ft 19 kts 324°
2026-05-07 16:50 43.63606 1.35549 492 ft 15 kts 52°
2026-05-07 16:50 43.63671 1.35669 488 ft 17 kts 52°
2026-05-07 16:50 43.63747 1.35809 485 ft 19 kts 53°
2026-05-07 16:51 43.63814 1.35946 492 ft 16 kts 78°
2026-05-07 16:51 43.63748 1.36067 490 ft 17 kts 144°
2026-05-07 16:51 43.63645 1.36171 490 ft 19 kts 143°
2026-05-07 16:51 43.63531 1.36290 492 ft 22 kts 142°
2026-05-07 16:52 43.63410 1.36414 492 ft 20 kts 143°
2026-05-07 16:52 43.63290 1.36538 492 ft 23 kts 143°
2026-05-07 16:52 43.63169 1.36665 491 ft 17 kts 143°
2026-05-07 16:52 43.63104 1.36783 491 ft 15 kts 80°
2026-05-07 16:53 43.63102 1.36888 486 ft 10 kts 114°
2026-05-07 16:53 43.63123 1.36964 488 ft 7 kts 65°
2026-05-07 16:53 43.63138 1.37011 486 ft 0 kts 65°